SCP
0 0 0 0 0 0 0 0 0 0 0 0 0 0 0 0 0 0 0 0 0 0 0 0 0 0 0 0 0 0 0 0 0 0 0 0 0 0 0 0 0 0 0
0 0 0 0 0 0 0 0 0 0 0 0 0 0 0 0 0 0 0 0 0 0 0 0 0 0 0 0 0 0 0 0 0 0 0 0 0 0 0 0 0 0 0
0 0 0 0 0 0 0 0 0 0 0 0 0 0 0 0 0 0 0 0 0 0 0 0 0 0 0 0 0 0 0 0 0 0 0 0 0 0 0 0 0 0 0
0 0 0 0 0 0 0 0 0 0 0 0 0 0 0 0 0 0 0 0 0 0 0 0 0 0 0 0 0 0 0 0 0 0 0 0 0 0 0 0 0 0 0
0 0 0 0 0 0 0 0 0 0 0 0 0 0 0 0 0 0 0 0 0 0 0 0 0 0 0 0 0 0 0 0 0 0 0 0 0 0 0 0 0 0 0
0 0 0 0 0 0 0 0 0 0 0 0 0 0 0 0 0 0 0 0 0 0 0 0 0 0 0 0 0 0 0 0 0 0 0 0 0 0 0 0 0 0 0
0 0 0 0 0 0 0 0 0 0 0 0 0 0 0 0 0 0 0 0 0 0 0 0 0 0 0 0 0 0 0 0 0 0 0 0 0 0 0 0 0 0 0
0 0 0 0 0 0 0 0 0 0 0 0 0 0 0 0 0 0 0 0 0 0 0 0 0 0 0 0 0 0 0 0 0 0 0 0 0 0 0 0 0 0 0
0 0 0 0 0 0 0 0 0 0 0 0 0 0 0 0 0 0 0 0 0 0 0 0 0 0 0 0 0 0 0 0 0 0 0 0 0 0 0 0 0 0 0
0 0 0 0 0 0 0 0 0 0 0 0 0 0 0 0 0 0 0 0 0 0 0 0 0 0 0 0 0 0 0 0 0 0 0 0 0 0 0 0 0 0 0
0 0 0 0 0 0 0 0 0 0 0 0 0 0 0 0 0 0 0 0 0 0 0 0 0 0 0 0 0 0 0 0 0 0 0 0 0 0 0 0 0 0 0
0 0 0 0 0 0 0 0 0 0 0 0 0 0 0 0 0 0 0 0 0 0 0 0 0 0 0 0 0 0 0 0 0 0 0 0 0 0 0 0 0 0 0
0 0 0 0 0 0 0 0 0 0 0 0 0 0 0 0 0 0 0 0 0 0 0 0 0 0 0 0 0 0 0 0 0 0 0 0 0 0 0 0 0 0 0
0 0 0 0 0 0 0 0 0 0 0 0 0 0 0 0 0 0 0 0 0 0 0 0 0 0 0 0 0 0 0 0 0 0 0 0 0 0 0 0 0 0 0
0 0 0 0 0 0 0 0 0 0 0 0 0 0 0 0 0 0 0 0 0 0 0 0 0 0 0 0 0 0 0 0 0 0 0 0 0 0 0 0 0 0 0
0 0 0 0 0 0 0 0 0 0 0 0 0 0 0 0 0 0 0 0 0 0 0 0 0 0 0 0 0 0 0 0 0 0 0 0 0 0 0 0 0 0 0
0 0 0 0 0 0 0 0 0 0 0 0 0 0 0 0 0 0 0 0 0 0 0 0 0 0 0 0 0 0 0 0 0 0 0 0 0 0 0 0 0 0 0
0 0 0 0 0 0 0 0 0 0 0 0 0 0 0 0 0 0 0 0 0 0 0 0 0 0 0 0 0 0 0 0 0 0 0 0 0 0 0 0 0 0 0
0 0 0 0 0 0 0 0 0 0 0 0 0 0 0 0 0 0 0 0 0 0 0 0 0 0 0 0 0 0 0 0 0 0 0 0 0 0 0 0 0 0 0
0 0 0 0 0 0 0 0 0 0 0 0 0 0 0 0 0 0 0 0 0 0 0 0 0 0 0 0 0 0 0 0 0 0 0 0 0 0 0 0 0 0 0
0 0 0 0 0 0 0 0 0 0 0 0 0 0 0 0 0 0 0 0 0 0 0 0 0 0 0 0 0 0 0 0 0 0 0 0 0 0 0 0 0 0 0
0 0 0 0 0 0 0 0 0 0 0 0 0 0 0 0 0 0 0 0 0 0 0 0 0 0 0 0 0 0 0 0 0 0 0 0 0 0 0 0 0 0 0
0 0 0 0 0 0 0 0 0 0 0 0 0 0 0 0 0 0 0 0 0 0 0 0 0 0 0 0 0 0 0 0 0 0 0 0 0 0 0 0 0 0 0
0 0 0 0 0 0 0 0 0 0 0 0 0 0 0 0 0 0 0 0 0 0 0 0 0 0 0 0 0 0 0 0 0 0 0 0 0 0 0 0 0 0 0
0 0 0 0 0 0 0 0 0 0 0 0 0 0 0 0 0 0 0 0 0 0 0 0 0 0 0 0 0 0 0 0 0 0 0 0 0 0 0 0 0 0 0
0 0 0 0 0 0 0 0 0 0 0 0 0 0 0 0 0 0 0 0 0 0 0 0 0 0 0 0 0 0 0 0 0 0 0 0 0 0 0 0 0 0 0
Wind_Speed
2 3 2 2 3 2 2 3 3 3 3 3 3 4 4 4 3 3 3 9 10 9 9 8 8 8 7 6 6 4 3 2 2 2 2 2 2 2 2 2 2 3 3
2 2 2 2 2 2 2 2 2 2 2 2 3 3 3 3 4 3 3 5 9 10 9 9 8 8 8 7 6 6 5 4 2 1 1 1 1 1 1 1 1 1 1
2 2 2 2 2 2 2 2 3 2 2 2 3 3 3 3 3 4 4 3 4 7 10 10 9 8 8 7 6 6 5 5 3 2 2 2 2 2 1 1 1 1 1
2 2 2 2 2 1 2 2 2 2 2 2 2 2 2 2 3 3 4 4 3 3 6 10 10 10 9 8 7 6 5 6 5 4 2 2 3 3 3 2 2 1 1
2 2 1 2 1 1 2 2 2 2 2 2 2 2 1 2 2 2 3 4 4 4 4 6 8 9 9 9 9 8 7 6 6 5 3 3 3 3 3 3 3 3 3
1 1 1 2 1 1 1 2 2 2 2 2 1 1 1 1 1 2 2 2 3 4 5 5 4 5 8 9 9 9 9 7 7 6 5 4 4 4 4 4 4 4 4
2 1 1 1 1 1 1 2 1 2 2 2 1 0 1 1 1 1 1 2 3 3 4 4 4 4 3 7 8 9 10 9 8 8 7 5 5 5 5 5 5 5 5
2 1 1 1 1 1 1 1 1 1 1 2 2 1 1 2 1 1 1 2 2 2 3 4 4 4 4 3 5 9 10 10 9 9 8 7 6 6 6 6 7 7 6
2 1 1 1 1 1 1 0 0 0 0 1 2 2 2 1 0 1 1 1 2 2 2 3 3 4 4 4 4 7 10 10 10 10 9 9 8 8 7 8 8 8 7
2 1 1 1 1 1 1 1 0 1 1 1 1 1 2 2 2 1 1 1 2 3 3 2 3 3 3 3 4 8 10 10 11 11 10 10 9 9 8 9 9 8 8
2 1 1 1 1 1 1 1 1 1 1 2 1 1 1 2 3 3 3 2 2 2 3 3 2 3 3 4 4 7 10 11 11 11 12 11 10 10 10 9 9 9 9
2 2 1 1 1 1 1 1 1 1 1 2 2 2 2 2 2 3 3 3 3 3 3 2 2 3 3 4 5 8 10 11 11 12 12 12 11 11 11 10 10 10 10
2 2 1 1 1 1 1 1 1 1 2 2 2 2 2 2 2 3 4 4 4 3 3 2 2 3 3 4 4 9 9 11 11 12 13 13 13 12 12 11 10 10 10
2 2 2 1 1 1 1 1 1 1 1 2 2 2 2 2 2 3 3 4 4 4 4 3 2 3 3 4 6 9 7 10 12 12 13 13 13 13 12 12 11 10 10
2 3 2 2 2 2 2 2 1 2 2 2 2 2 2 2 2 3 3 4 5 5 4 3 3 3 4 5 7 7 7 10 12 12 13 13 13 12 12 11 11 11 11
3 3 3 2 2 2 2 2 2 2 2 2 2 2 3 2 2 3 3 3 4 5 5 3 4 5 6 6 8 8 7 11 12 12 12 13 12 12 11 11 11 12 12
3 3 3 3 3 3 2 2 3 3 3 3 3 3 3 3 3 3 3 3 4 5 7 6 5 6 8 8 7 7 7 7 7 11 12 13 13 12 11 11 11 11 11
3 3 3 3 3 3 3 3 3 3 4 4 4 4 4 4 4 4 4 5 5 5 6 8 6 6 8 8 9 9 7 7 7 10 12 13 13 12 12 11 11 11 10
3 3 3 3 3 3 4 4 4 4 4 4 5 5 5 5 5 5 5 5 5 5 6 7 7 6 6 6 8 8 8 7 7 8 11 12 12 12 12 12 11 10 10
3 3 3 3 3 4 4 4 4 5 5 5 5 5 6 6 6 6 5 6 6 6 6 7 7 6 6 7 6 7 7 6 7 7 9 10 11 12 12 11 11 10 10
3 3 3 3 3 3 4 4 4 5 5 5 5 6 6 7 8 7 6 6 6 6 6 6 7 6 6 6 6 6 7 7 8 7 7 7 7 7 7 8 9 10 11
3 3 4 3 3 3 4 6 5 5 5 6 5 6 6 7 8 10 11 11 9 8 7 7 7 7 8 8 7 6 7 8 8 5 7 7 7 7 6 6 8 10 11
3 3 3 4 4 4 6 6 6 5 5 5 6 5 5 5 8 7 9 10 11 12 12 9 9 9 9 8 8 9 8 8 9 8 8 8 7 8 7 7 10 12 12
3 3 4 4 4 4 5 6 6 5 5 5 6 6 6 6 6 7 8 8 8 9 9 8 9 9 9 9 8 9 9 9 10 8 8 8 7 8 8 7 10 12 12
3 3 3 4 4 4 5 5 5 4 4 5 5 6 6 7 8 10 8 8 9 8 9 11 12 12 13 13 11 7 7 7 8 7 6 7 7 8 8 7 7 10 11
3 3 3 3 3 3 4 4 5 3 4 4 4 5 7 8 9 9 7 7 8 7 7 7 8 9 9 10 11 9 7 7 8 7 5 6 6 6 7 5 5 5 6
Wind_Direction
66 62 54 46 40 31 31 27 29 36 43 50 49 48 50 50 47 47 49 40 32 31 29 29 28 27 27 29 27 17 15 18 21 29 38 42 39 44 55 57 60 60 57
68 66 63 46 42 33 26 24 29 33 34 44 56 54 52 54 48 45 38 47 40 33 31 29 26 23 21 22 19 17 16 19 10 2 356 347 3 13 25 25 37 48 45
76 72 72 58 42 39 35 28 34 36 42 45 57 58 57 52 54 46 37 30 40 42 34 28 23 17 12 13 14 9 7 13 15 359 332 313 299 290 291 297 297 302 324
78 80 80 69 49 38 39 32 24 31 37 33 37 51 64 62 53 44 40 33 28 26 34 28 21 19 17 12 6 3 1 4 360 351 337 325 306 286 274 272 277 277 284
87 85 80 74 65 50 51 39 31 25 27 28 28 36 49 61 58 47 45 39 34 25 19 26 22 19 16 14 10 3 1 356 350 343 338 324 309 299 284 271 269 267 267
104 94 93 83 68 67 58 50 46 34 20 11 21 39 45 56 46 43 33 35 31 23 17 10 9 15 19 13 7 360 356 350 345 341 327 319 302 294 295 291 284 275 268
119 111 107 105 82 73 63 59 57 57 25 353 331 37 125 124 53 19 10 15 23 18 14 8 3 357 359 10 7 358 351 350 344 338 329 314 304 292 288 290 286 280 277
129 134 129 130 129 110 98 79 60 37 14 346 315 258 209 188 166 341 341 356 4 2 4 5 0 2 350 347 3 359 347 344 341 337 331 319 308 300 293 290 285 281 279
133 130 145 141 149 162 159 159 63 292 292 337 332 304 270 249 314 214 280 314 342 339 343 351 351 356 352 348 343 356 349 341 334 328 325 323 318 309 302 295 291 285 281
147 139 140 148 162 176 178 193 222 264 261 265 302 328 327 321 271 256 226 261 311 316 323 326 338 342 343 340 344 347 343 336 329 325 320 317 317 308 301 295 290 283 285
154 150 153 157 166 177 177 196 218 238 260 264 267 273 262 259 267 261 261 273 288 300 311 308 313 320 332 332 329 338 336 328 321 317 315 312 311 310 303 294 288 288 284
169 163 166 165 168 177 186 202 219 231 244 247 251 255 264 257 256 262 269 278 288 301 301 294 298 309 320 321 326 333 328 325 320 314 311 310 309 309 305 297 290 286 281
183 182 180 181 182 187 199 205 211 227 237 244 246 248 259 273 270 268 269 276 280 287 280 273 290 298 311 313 320 328 318 319 317 312 309 309 310 310 307 299 291 291 285
186 185 192 195 194 195 202 210 212 224 236 241 249 250 250 263 265 263 268 276 275 268 263 267 283 289 305 309 315 314 310 314 311 310 309 309 310 308 306 301 295 291 289
181 184 192 196 205 207 206 213 220 222 232 243 248 253 257 255 263 259 263 268 271 275 273 274 282 298 307 303 305 300 301 307 308 307 307 307 305 304 302 300 298 293 289
184 188 195 201 207 214 218 218 224 228 236 246 253 251 256 257 257 254 250 260 264 269 274 280 290 301 305 298 299 296 296 300 297 301 303 304 302 300 299 298 297 295 288
186 195 199 205 213 219 226 226 224 227 236 245 250 254 258 259 259 257 252 254 258 264 270 280 286 295 297 300 301 298 294 293 291 295 299 300 298 295 294 293 294 293 290
193 199 200 209 218 224 230 233 234 232 236 242 249 252 257 259 257 258 254 253 257 262 270 277 285 290 293 297 299 298 297 294 292 294 294 294 294 293 290 289 288 290 290
202 203 206 214 221 229 232 236 239 239 239 244 249 254 258 259 259 258 257 257 258 261 264 271 279 284 286 290 296 295 295 295 294 293 291 290 290 290 288 284 282 282 285
207 212 218 225 229 234 234 238 243 243 246 248 250 254 257 259 263 265 263 262 262 263 264 266 272 278 282 288 289 292 295 296 296 296 291 292 290 288 284 281 280 278 279
215 219 225 231 234 234 236 245 246 246 250 252 253 255 255 261 265 266 267 265 263 262 265 267 271 277 282 285 285 291 292 298 296 292 292 291 289 286 281 274 272 275 277
219 223 227 230 237 241 250 254 258 253 254 253 257 261 260 256 259 264 269 268 266 265 267 268 272 274 280 283 285 286 291 294 294 295 294 293 291 286 283 280 280 279 277
219 228 232 233 240 249 252 255 258 262 257 257 258 262 262 262 262 265 268 267 265 265 266 269 272 272 279 283 284 283 282 285 288 297 296 288 288 286 287 281 281 279 279
227 235 238 238 243 250 257 258 260 260 258 261 262 264 266 267 264 270 270 267 264 262 263 264 268 272 276 281 278 279 282 282 283 282 282 283 288 289 292 284 279 277 278
232 239 239 236 241 250 256 263 266 262 259 262 263 264 268 272 275 277 273 269 270 269 269 269 273 276 279 282 282 279 278 278 282 284 281 280 287 294 291 284 282 279 278
238 244 247 239 240 252 259 266 270 262 262 265 265 265 266 275 281 280 272 271 273 278 280 279 276 276 277 278 277 270 271 274 281 284 279 282 287 299 294 283 284 287 281